This is the latest recevied weather packets stored in our database for station/object F5IOR. If no packets are shown the sender has not sent any weather packets the latest 10 day(s).
| Time | Temp. | Humidity | Pressure | Rain* | Wind** | Luminosity | Snow |
|---|---|---|---|---|---|---|---|
| 1788075610 | 20° C | 75% | 989.8 hPa | 0 mm | - | - | - |
| 1788075490 | 20° C | 75% | 989.8 hPa | 0 mm | - | - | - |
| 1788075370 | 20° C | 75% | 989.8 hPa | 0 mm | - | - | - |
| 1788075310 | 20° C | 75% | 989.8 hPa | 0 mm | - | - | - |
| 1788075250 | 20° C | 75% | 989.8 hPa | 0 mm | - | - | - |
| 1788075190 | 20° C | 75% | 989.8 hPa | 0 mm | - | - | - |
| 1788030381 | 23.33° C | 53% | 988.5 hPa | 0 mm | - | - | - |
| 1788028581 | 23.89° C | 51% | 988.4 hPa | 0 mm | - | - | - |
| 1788026781 | 24.44° C | 47% | 988.2 hPa | 0 mm | - | - | - |
| 1788024981 | 24.44° C | 45% | 988.2 hPa | 0 mm | - | - | - |
| 1788023181 | 25° C | 43% | 988.1 hPa | 0 mm | - | - | - |
| 1788021381 | 25° C | 43% | 988.1 hPa | 0 mm | - | - | - |
| 1788019581 | 25° C | 43% | 988.6 hPa | 0 mm | - | - | - |
| 1788017781 | 25° C | 43% | 988.7 hPa | 0 mm | - | - | - |
| 1788015981 | 25.56° C | 40% | 988.8 hPa | 0 mm | - | - | - |
| 1788014181 | 25.56° C | 39% | 988.9 hPa | 0 mm | - | - | - |
| 1788012381 | 25.56° C | 38% | 988.9 hPa | 0 mm | - | - | - |
| 1788010581 | 25.56° C | 38% | 988.9 hPa | 0 mm | - | - | - |
| 1788008783 | 25° C | 41% | 989 hPa | 0 mm | - | - | - |
| 1788008781 | 25° C | 41% | 989 hPa | 0 mm | - | - | - |
| 1788006981 | 25° C | 42% | 989 hPa | 0 mm | - | - | - |
| 1788005181 | 25° C | 44% | 989.2 hPa | 0 mm | - | - | - |
| 1788003382 | 24.44° C | 45% | 989.3 hPa | 0 mm | - | - | - |
| 1788003381 | 24.44° C | 45% | 989.3 hPa | 0 mm | - | - | - |
| 1788001582 | 23.33° C | 48% | 989.5 hPa | 0 mm | - | - | - |
* Rain latest hour (hover to see other rain measurements)
** Current wind speed in m/s (hover to see current wind gust speed)